Wind_Speed
27 26 26 26 26 26 26 26 26 26 26 26 27 27 27 28 28 29 29 28 27 26 24 22 20 19 18 17 17 17 17 17 18 18 18 18 17 16 16 15 14 13 12
30 30 30 30 29 29 29 29 28 28 29 29 29 30 30 30 30 31 31 31 30 29 27 26 24 23 22 21 20 19 19 20 20 20 20 20 20 20 19 18 17 16 15
33 33 33 33 33 32 32 31 31 31 31 31 31 31 32 31 31 32 33 33 32 31 30 29 27 26 25 25 24 23 22 22 23 23 22 22 22 22 22 21 20 19 18
34 35 35 35 35 35 34 33 33 33 33 33 33 33 33 33 33 33 34 34 33 33 34 32 31 30 29 28 27 26 26 25 25 25 25 25 25 25 25 24 23 22 21
35 35 36 37 36 36 35 35 35 35 35 35 34 34 34 34 34 33 34 34 35 35 34 34 33 32 31 31 31 29 29 28 28 28 27 27 27 27 26 26 26 25 24
36 37 37 37 37 37 37 37 37 37 36 35 35 34 34 34 34 34 34 34 35 35 34 34 34 33 33 32 32 32 31 30 30 30 30 30 29 28 28 28 27 27 27
38 39 38 38 38 38 38 37 37 37 37 36 36 35 34 34 34 35 35 34 34 34 34 34 35 34 34 33 32 33 32 31 31 31 31 31 31 30 30 29 29 29 28
40 40 40 40 40 40 40 37 36 36 37 37 37 35 33 33 34 35 35 34 34 33 32 33 33 33 32 32 31 31 32 31 31 31 32 32 32 32 32 31 30 29 29
41 41 41 41 41 41 41 40 39 38 37 38 37 35 34 33 34 34 34 33 33 33 32 32 31 30 31 31 30 30 30 30 29 29 30 31 31 32 32 32 31 30 29
41 41 41 42 41 41 41 40 40 39 39 38 37 36 35 35 34 32 32 33 33 33 32 31 30 30 30 30 29 28 27 28 28 27 27 27 28 29 30 31 31 30 30
40 41 42 42 42 42 41 41 41 41 40 39 39 38 37 36 34 32 31 32 32 32 31 31 31 30 30 28 28 27 26 26 26 26 26 26 25 26 27 28 29 30 30
40 41 42 42 42 43 43 43 43 43 43 42 42 41 39 38 36 34 32 31 31 32 31 31 30 29 28 27 27 27 26 25 25 25 25 25 25 25 25 26 27 28 29
40 41 43 43 43 44 44 45 45 45 45 44 43 42 41 40 37 35 33 32 31 31 31 30 29 29 28 27 26 26 26 25 25 25 25 25 26 26 26 27 28 29 30
42 43 44 44 44 44 45 45 46 45 45 43 43 42 41 39 37 35 33 32 31 30 31 30 29 28 27 26 25 25 25 25 25 26 26 26 27 27 27 28 29 30 31
44 44 44 44 44 45 44 44 43 42 42 42 41 40 39 37 35 33 33 32 31 31 30 28 27 26 26 25 25 25 25 26 26 26 27 27 28 29 29 29 29 30 31
43 43 43 43 43 42 41 40 39 39 39 38 37 37 36 35 33 31 30 29 28 28 27 26 25 25 25 25 25 26 26 27 28 28 28 29 30 30 30 31 31 32 33
41 41 40 40 40 38 37 36 36 35 34 34 33 32 31 31 29 28 28 26 25 24 24 23 23 23 24 24 25 26 28 29 29 30 30 31 32 32 33 33 33 34 34
37 36 36 36 35 34 33 32 31 32 32 30 29 29 29 29 29 28 27 25 24 23 22 22 22 23 24 25 26 27 28 29 30 31 32 32 33 34 35 35 35 36 36
33 32 31 31 30 30 29 28 28 28 27 26 25 25 26 26 26 25 24 24 23 22 22 22 22 23 24 25 26 27 28 29 30 32 33 34 35 35 36 36 37 37 38
28 28 27 27 26 26 25 24 24 24 23 24 24 23 24 24 24 22 22 22 22 21 20 21 21 22 23 24 25 26 27 29 30 31 33 34 34 35 36 37 38 38 39
26 24 24 23 22 21 21 20 20 21 22 23 23 23 23 22 22 21 20 20 19 18 19 19 20 20 21 22 23 24 26 27 29 30 31 33 34 35 36 37 38 39 39
23 21 20 19 17 17 17 18 18 18 19 21 21 20 20 19 19 18 18 17 17 16 16 17 17 18 19 20 22 23 25 27 29 30 32 34 35 36 36 37 37 38 39
21 20 17 16 15 15 15 15 14 16 16 15 17 17 17 16 16 15 14 14 14 13 14 15 15 16 17 18 20 22 24 26 28 30 32 33 34 35 36 36 37 37 37
19 17 15 15 14 13 13 13 13 13 13 13 14 14 13 12 12 12 12 11 11 12 12 12 13 14 15 17 19 21 23 26 28 29 30 31 32 33 34 35 35 36 35
17 15 13 12 12 11 10 10 10 11 12 12 12 11 11 10 10 9 9 9 9 9 10 10 12 13 15 17 19 21 23 25 27 28 29 29 30 31 31 31 32 33 33
17 15 13 11 10 9 9 8 9 10 11 10 10 10 10 10 9 9 9 8 8 8 9 10 11 13 14 17 19 21 22 24 26 28 28 28 28 28 29 29 28 28 29
Wind_Direction
287 287 287 288 289 290 292 293 293 294 294 296 295 291 291 290 288 283 281 280 279 278 278 279 281 282 283 282 280 277 274 272 269 266 263 260 258 258 258 258 261 263 266
284 284 283 284 284 285 285 287 288 290 291 293 293 290 288 288 285 281 278 276 273 272 273 272 274 277 278 279 278 276 274 273 271 268 265 262 259 258 257 256 257 259 261
280 280 281 282 282 281 282 283 284 286 288 290 291 291 289 288 285 280 275 274 269 267 269 269 269 272 275 276 276 276 275 273 271 270 267 263 260 258 257 256 255 256 258
275 276 278 279 280 280 280 281 282 284 286 287 288 290 290 289 287 281 275 271 267 266 266 267 266 267 271 273 274 274 274 273 270 268 267 264 262 259 257 256 255 255 255
272 273 274 276 278 278 279 279 281 283 285 286 287 289 290 288 287 282 279 273 270 269 266 263 264 265 267 270 272 273 273 271 269 267 266 264 262 260 258 257 256 255 255
275 274 275 275 277 278 278 279 280 282 284 285 286 288 288 287 285 281 279 275 273 270 266 262 261 262 264 267 270 271 272 271 269 268 265 263 262 261 260 258 257 256 256
276 276 275 276 276 277 277 279 280 281 282 283 284 286 286 284 284 281 279 275 273 270 265 262 262 263 264 265 268 270 271 270 268 267 265 264 263 262 261 259 258 258 258
277 276 277 278 280 279 279 278 281 282 281 283 283 283 283 282 282 281 278 276 273 268 265 263 263 262 263 264 265 267 269 268 268 267 265 264 262 261 260 260 259 259 259
278 278 279 280 281 282 283 282 282 283 284 284 282 282 283 282 280 281 279 276 270 266 264 263 262 262 261 263 264 266 267 268 267 266 265 263 261 260 259 260 260 260 260
279 280 280 280 281 282 283 282 282 283 282 283 282 283 285 283 281 278 277 274 270 267 264 262 262 264 263 262 262 264 265 265 264 264 264 263 262 260 258 259 259 260 260
280 280 282 281 281 282 282 282 282 282 281 282 282 282 282 281 280 278 274 271 270 267 265 263 262 263 262 260 260 262 262 261 260 262 263 261 263 261 259 259 259 260 261
281 281 282 283 283 283 282 282 281 280 280 280 280 279 278 277 277 276 274 271 269 267 264 263 263 262 258 258 259 261 261 259 259 260 262 262 262 262 261 260 260 261 260
283 283 283 283 282 282 281 281 280 279 278 277 277 277 275 274 272 271 271 269 267 264 264 262 262 261 259 258 258 259 259 259 260 260 262 262 262 262 262 261 260 260 260
284 284 285 284 283 282 281 280 278 278 276 275 274 273 272 271 269 269 269 268 266 264 262 261 261 260 259 258 257 258 258 260 261 262 262 263 264 263 263 262 262 261 260
284 284 284 283 283 283 281 279 277 276 275 273 271 270 270 268 266 266 266 266 264 262 260 258 257 256 257 258 258 260 261 262 263 263 265 265 265 265 264 263 263 263 261
286 285 284 283 283 282 280 278 275 274 272 271 269 267 265 263 262 263 263 263 263 260 257 255 255 256 257 259 262 263 264 265 266 267 268 267 267 266 265 265 264 263 262
287 286 285 284 282 281 279 277 274 271 268 267 264 260 260 258 258 259 259 260 260 257 254 254 256 259 261 263 265 266 267 269 270 271 270 269 269 268 267 266 266 264 263
288 287 286 285 282 280 278 274 271 269 266 263 258 254 253 255 255 254 254 256 255 255 255 256 259 261 264 266 268 270 271 272 273 273 273 272 271 270 269 267 266 264 264
289 287 286 286 282 280 276 272 267 263 261 255 250 249 250 251 250 249 250 252 254 255 256 258 261 264 267 269 271 272 274 275 276 276 276 275 274 273 271 269 268 266 264
290 287 288 288 283 278 274 269 263 259 256 251 246 247 250 250 246 243 247 252 254 255 256 260 264 268 270 273 275 277 279 280 280 280 279 278 276 275 273 271 269 266 264
290 289 291 288 284 277 271 267 263 257 253 251 247 248 249 249 243 246 249 251 251 254 258 263 267 272 276 278 281 283 284 285 285 284 283 281 279 278 275 273 271 268 265
291 290 292 289 284 277 269 264 258 253 250 247 244 246 247 245 246 245 244 246 251 256 261 267 272 276 280 283 286 289 290 291 290 290 288 286 283 281 278 275 272 269 266
290 289 287 283 283 278 267 260 254 247 244 237 237 238 236 237 238 238 242 248 251 256 264 270 275 280 285 290 294 296 297 297 297 296 294 291 288 284 279 275 272 268 266
286 284 283 280 280 275 264 254 245 242 238 235 233 232 228 228 233 236 238 242 251 259 264 272 280 288 295 300 303 304 305 306 305 302 300 297 293 288 283 277 272 268 265
279 279 278 275 272 271 265 251 242 234 227 227 227 222 216 216 220 226 234 241 249 257 268 280 291 299 304 308 310 312 313 314 313 311 306 302 297 292 287 282 275 270 266
270 270 269 267 268 264 254 241 233 223 216 212 210 208 210 213 219 225 233 241 251 264 278 290 299 306 311 316 319 321 322 322 321 318 314 308 303 297 291 287 279 272 267
Height
5900 5898 5897 5896 5894 5893 5892 5891 5890 5889 5887 5886 5885 5884 5883 5882 5881 5880 5880 5880 5879 5879 5878 5877 5876 5875 5874 5873 5872 5872 5871 5870 5870 5870 5870 5869 5870 5870 5869 5869 5869 5869 5870
5892 5891 5890 5889 5888 5887 5886 5884 5883 5882 5881 5880 5878 5877 5876 5875 5874 5873 5873 5873 5872 5872 5872 5871 5870 5869 5869 5868 5868 5867 5866 5866 5866 5865 5865 5865 5865 5865 5866 5866 5866 5866 5866
5885 5883 5882 5881 5880 5879 5878 5877 5875 5874 5873 5872 5871 5869 5868 5867 5866 5865 5865 5864 5864 5865 5865 5864 5864 5863 5863 5862 5862 5862 5861 5861 5861 5860 5860 5860 5860 5861 5861 5861 5861 5861 5862
5877 5875 5873 5872 5870 5869 5868 5867 5866 5866 5865 5863 5862 5861 5860 5858 5857 5856 5855 5855 5855 5856 5856 5857 5857 5856 5856 5855 5855 5855 5855 5855 5854 5854 5854 5854 5855 5855 5855 5856 5856 5857 5857
5867 5866 5864 5862 5861 5860 5858 5857 5856 5856 5855 5854 5852 5852 5850 5849 5848 5847 5846 5846 5846 5847 5847 5848 5848 5849 5849 5849 5848 5848 5848 5848 5848 5848 5848 5848 5848 5849 5849 5850 5851 5851 5852
5857 5855 5854 5853 5851 5849 5848 5847 5847 5846 5846 5844 5843 5842 5841 5840 5839 5838 5837 5837 5836 5837 5837 5839 5840 5840 5841 5841 5841 5841 5841 5840 5840 5841 5841 5841 5841 5842 5843 5844 5845 5846 5846
5847 5845 5844 5842 5840 5839 5838 5838 5837 5836 5836 5834 5833 5833 5833 5831 5830 5829 5827 5827 5827 5827 5828 5829 5831 5832 5833 5833 5833 5833 5833 5833 5833 5833 5833 5834 5834 5835 5836 5837 5838 5839 5840
5837 5835 5833 5832 5830 5829 5828 5827 5827 5826 5826 5824 5824 5823 5824 5823 5821 5819 5818 5817 5818 5818 5819 5820 5821 5823 5824 5825 5825 5825 5825 5825 5825 5825 5825 5826 5826 5827 5828 5829 5831 5832 5833
5826 5824 5823 5822 5821 5820 5818 5818 5817 5816 5816 5815 5814 5813 5813 5813 5813 5812 5809 5809 5809 5809 5810 5812 5813 5814 5815 5816 5817 5817 5817 5817 5817 5817 5817 5818 5819 5819 5821 5822 5824 5824 5825
5816 5815 5813 5812 5811 5810 5809 5808 5806 5806 5807 5806 5805 5804 5804 5803 5803 5803 5802 5801 5800 5800 5802 5803 5804 5805 5807 5808 5809 5809 5809 5809 5809 5810 5810 5811 5811 5811 5813 5814 5816 5817 5818
5806 5805 5803 5802 5801 5799 5799 5798 5797 5797 5797 5797 5796 5795 5794 5794 5793 5794 5793 5793 5792 5792 5794 5795 5796 5797 5799 5800 5801 5802 5802 5802 5802 5803 5803 5804 5804 5805 5806 5807 5808 5809 5810
5797 5795 5793 5791 5790 5789 5788 5787 5787 5786 5786 5786 5785 5785 5785 5785 5785 5785 5785 5785 5784 5784 5785 5786 5788 5789 5790 5792 5793 5794 5794 5795 5795 5796 5796 5797 5798 5798 5799 5800 5801 5801 5802
5786 5784 5782 5781 5779 5778 5777 5776 5775 5775 5774 5774 5774 5774 5774 5775 5775 5776 5776 5776 5776 5776 5777 5778 5780 5781 5783 5784 5785 5786 5787 5787 5788 5789 5789 5790 5791 5791 5792 5792 5793 5793 5794
5775 5773 5771 5770 5768 5767 5765 5764 5763 5762 5762 5762 5763 5763 5763 5765 5765 5766 5767 5768 5768 5768 5769 5771 5772 5773 5775 5776 5777 5778 5779 5780 5781 5781 5782 5782 5783 5784 5784 5784 5785 5785 5785
5763 5762 5760 5758 5756 5755 5753 5752 5751 5750 5751 5751 5752 5752 5753 5754 5756 5757 5758 5759 5760 5760 5761 5762 5764 5765 5767 5768 5769 5770 5771 5772 5773 5773 5774 5774 5775 5775 5775 5775 5776 5776 5776
5751 5749 5748 5746 5744 5742 5741 5740 5740 5739 5739 5740 5740 5741 5742 5744 5746 5748 5749 5750 5751 5752 5754 5755 5756 5758 5759 5760 5762 5763 5763 5764 5765 5765 5765 5765 5766 5766 5766 5766 5766 5766 5766
5740 5738 5736 5734 5732 5731 5729 5729 5728 5728 5728 5729 5731 5732 5733 5735 5737 5740 5741 5742 5744 5745 5747 5748 5749 5751 5752 5753 5754 5755 5755 5756 5756 5756 5756 5756 5756 5756 5756 5755 5755 5755 5755
5729 5727 5725 5723 5721 5719 5719 5718 5718 5718 5718 5720 5721 5722 5725 5727 5730 5732 5734 5736 5738 5739 5741 5742 5743 5744 5745 5746 5746 5747 5747 5747 5747 5746 5746 5745 5745 5745 5744 5744 5743 5743 5743
5720 5717 5715 5713 5711 5710 5709 5709 5709 5709 5710 5711 5713 5715 5717 5720 5722 5725 5727 5729 5731 5733 5734 5735 5736 5737 5738 5739 5739 5739 5738 5738 5737 5736 5735 5735 5734 5733 5733 5732 5731 5731 5730
5712 5709 5707 5705 5703 5702 5701 5701 5701 5702 5703 5704 5706 5708 5711 5713 5716 5718 5721 5723 5725 5726 5728 5729 5730 5731 5731 5731 5731 5730 5730 5729 5728 5727 5725 5724 5723 5722 5721 5720 5719 5718 5718
5705 5703 5700 5698 5696 5695 5695 5695 5695 5696 5697 5699 5701 5703 5705 5707 5710 5712 5715 5717 5719 5720 5722 5723 5723 5724 5724 5723 5723 5722 5721 5720 5718 5717 5715 5713 5712 5710 5709 5707 5706 5705 5705
5698 5697 5695 5693 5691 5690 5689 5689 5690 5691 5692 5693 5695 5697 5699 5702 5704 5707 5710 5712 5714 5715 5716 5717 5717 5717 5717 5717 5716 5714 5713 5711 5710 5708 5705 5703 5701 5699 5697 5695 5694 5693 5692
5693 5691 5689 5688 5687 5686 5685 5685 5685 5686 5687 5688 5690 5693 5695 5698 5700 5703 5705 5707 5709 5710 5711 5712 5712 5712 5711 5710 5709 5707 5705 5703 5700 5697 5695 5692 5689 5687 5685 5683 5681 5680 5680
5688 5687 5685 5684 5683 5682 5682 5682 5682 5683 5684 5686 5688 5690 5692 5694 5697 5699 5702 5703 5705 5706 5707 5707 5707 5706 5706 5704 5703 5701 5698 5695 5692 5689 5685 5682 5678 5675 5673 5671 5669 5668 5668
5683 5682 5682 5681 5680 5680 5679 5679 5680 5681 5682 5684 5686 5687 5690 5692 5695 5697 5698 5700 5701 5702 5703 5702 5702 5701 5700 5698 5696 5694 5691 5688 5684 5680 5677 5673 5669 5666 5663 5660 5658 5657 5657
5678 5678 5678 5678 5677 5677 5677 5678 5678 5679 5680 5682 5684 5686 5688 5690 5692 5694 5696 5697 5698 5699 5699 5698 5698 5697 5695 5693 5690 5688 5684 5681 5677 5673 5668 5665 5661 5657 5654 5651 5649 5648 5647